Weather Roundup
Issued by NWS Indianapolis, IN

Home | Current Version | Previous Version | Text Only | Print | Product List | Glossary On
Versions: 1 2 3 4 5 6 7 8 9 10 11 12 13 14 15 16 17 18 19 20 21 22 23 24 25 26 27 28 29 30 31 32 33 34 35 36 37 38 39 40 41 42 43 44 45 46 47 48 49 50
000
NZUS99 KIND 020909
HRRIND

WEATHER ROUNDUP FOR INDIANA AND SURROUNDING STATES
NATIONAL WEATHER SERVICE INDIANAPOLIS IN
500 AM EDT TUE JUN 02 2020

...INDIANA...

CITY           SKY/WX    TMP DP  RH WIND       PRES   REMARKS
INDIANAPOLIS   MOCLDY    63  47  55 SW9       30.06F
EAGLE CREEK    CLEAR     62  48  60 CALM      30.05F
ZIONSVILLE     CLEAR     59  50  73 S6        30.06S
ANDERSON       CLEAR     64  46  52 SW8       30.06F
MOUNT COMFORT  CLEAR     64  52  63 S6        30.07S
SHELBYVILLE    CLEAR     64  49  57 S6        30.07S
$$

CITY           SKY/WX    TMP DP  RH WIND       PRES   REMARKS
LAFAYETTE      CLEAR     67  47  48 W6        30.02F
KOKOMO         CLEAR     65  47  52 SW9       30.04F
FRANKFORT      MOCLDY    65  47  53 SW9       30.05F
CRAWFORDSVILLE CLEAR     62  46  56 SW8       30.06S
MUNCIE         CLEAR     68  45  43 SW10      30.04F
GREENCASTLE    FAIR      66  47  50 SW8       30.07S
TERRE HAUTE    CLEAR     65  49  56 S6        30.06F
BLOOMINGTON    PTCLDY    64  47  53 S5        30.08S
$$

CITY           SKY/WX    TMP DP  RH WIND       PRES   REMARKS
GARY           MOCLDY    69  52  55 SW7       29.96F
VALPARAISO     CLOUDY    66  48  52 SW13      29.98F
LA PORTE       CLOUDY    65  49  56 SW9       29.98F
MICHIGAN CITY  CLOUDY    68  57  68 SW15G21   29.96F
SOUTH BEND     PTCLDY    66  47  50 SW14G21   29.98F
GOSHEN         CLOUDY    64  46  52 SW10      29.98F
ANGOLA         CLOUDY    64  46  52 SW8       29.98F
KENDALLVILLE   CLOUDY    63  44  51 SW9       30.00F
AUBURN         PTCLDY    61  46  59 SW6       30.01F
RENSSELAER     PTCLDY    64  46  52 SW13      30.00F
KNOX           MOCLDY    66  45  45 SW14G20   29.98F
PLYMOUTH       MOCLDY    68  46  45 SW14G21   29.98F
ROCHESTER      CLEAR     64  45  48 SW5       30.01F
WARSAW         CLEAR     64  45  48 SW6       29.99F
FORT WAYNE     PTCLDY    59  48  67 SW9       30.02F
MONTICELLO     PTCLDY    64  45  49 SW9       30.01F
LOGANSPORT     PTCLDY    64  46  52 SW12      30.03S
PERU/GRISSOM   CLEAR     61  49  64 SW7       30.02F
HUNTINGTON     CLEAR     63  45  52 SW6       30.02S
MARION         CLEAR     59  51  73 SW6       30.04F
PORTLAND       FAIR      63  39  42 SW7       30.04S
RICHMOND       FAIR      59  46  63 SW9       30.09F
BATESVILLE     CLEAR     59  46  63 CALM      30.09S
WASHINGTON     PTCLDY    66  49  55 S5        30.08S
FRENCH LICK    FAIR      64  45  48 SW3       30.11S
MADISON        CLEAR     59  52  77 CALM      30.12S
HUNTINGBURG    MOCLDY    66  51  58 CALM      30.11R
JEFFERSONVILLE FAIR      58  56  94 CALM      30.11S
EVANSVILLE     MOCLDY    65  54  67 CALM      30.10S
$$

...ILLINOIS...

CITY           SKY/WX    TMP DP  RH WIND       PRES   REMARKS
CHICAGO        MOCLDY    68  54  60 SW15      29.92F
MOLINE         CLEAR     70  61  73 SW8       29.93F
ROCKFORD       CLEAR     71  59  65 SW8       29.92F
KANKAKEE       PTCLDY    64  50  59 SW8       30.00F
PEORIA         CLEAR     63  57  81 SW6       29.99F
BLOOMINGTON    CLEAR     65  56  72 SW12      30.02F
CHAMPAIGN      CLEAR     64  50  60 SW8       30.04S
RANTOUL        CLEAR     66  49  55 SW9       30.03S
DANVILLE       CLEAR     64  49  57 CALM      30.05S
QUINCY         CLEAR     66  60  81 SW8       30.00S
SPRINGFIELD    CLEAR     69  59  70 SW6       30.02S
DECATUR        CLEAR     67  51  56 SW14      30.03S
MATTOON        CLEAR     66  50  56 S8        30.05R
PARIS          CLEAR     67  51  55 CALM      30.06S
EFFINGHAM      PTCLDY    65  55  70 CALM      30.08S
ROBINSON       PTCLDY    62  51  66 S5        30.08S
OLNEY          MOCLDY    69  49  49 S6        30.08S
LAWRENCEVILLE  MOCLDY   N/A N/A N/A S5        30.08S
MOUNT VERNON   PTCLDY    61  56  83 CALM      30.08S
FAIRFIELD      PTCLDY    65  54  67 CALM      30.08R
MOUNT CARMEL   MOCLDY    67  51  56 SW6       30.08S
CARMI          PTCLDY    64  57  77 N5        30.08S
$$

...KENTUCKY...

CITY           SKY/WX    TMP DP  RH WIND       PRES   REMARKS
LOUISVILLE     MOCLDY    66  51  58 SE7       30.11S
PADUCAH        MOCLDY    63  57  81 CALM      30.10S
OWENSBORO      PTCLDY    65  55  70 SE5       30.11S
FORT KNOX      CLOUDY    62  51  66 CALM      30.12S
LEXINGTON      PTCLDY    59  48  67 S6        30.13F
BOWLING GREEN  CLOUDY    63  56  78 CALM      30.12F
JACKSON        MOCLDY    62  47  57 CALM      30.15S
$$

...OHIO...

CITY           SKY/WX    TMP DP  RH WIND       PRES   REMARKS
CINCINNATI     PTCLDY    58  48  69 S8        30.09F
DAYTON         PTCLDY    64  46  52 SW9       30.08F
LIMA           CLEAR     63  46  54 S9        30.04F
WRIGHT-PAT AFB PTCLDY    59  47  66 S6        30.07F
COLUMBUS       CLOUDY    63  45  51 S5        30.08F
CLEVELAND      CLOUDY    58  51  78 S9        30.07F
$$

...MICHIGAN...

CITY           SKY/WX    TMP DP  RH WIND       PRES   REMARKS
DETROIT        CLOUDY    60  50  69 S8        29.96F
GRAND RAPIDS   PTCLDY    63  51  65 SW7       29.91F
LANSING        CLEAR     62  47  57 SW9       29.92
KALAMAZOO      MOCLDY    66  47  50 SW9       29.95F
BATTLE CREEK   PTCLDY    63  48  58 SW9       29.95F
MARSHALL       MOCLDY    64  47  53 SW7       29.95F
JACKSON        PTCLDY    64  45  49 SW13      29.95F
BENTON HARBOR  CLOUDY    71  50  47 SW18G33   29.93F
STURGIS        CLOUDY    65  48  55 SW8       29.97F
COLDWATER      PTCLDY    63  46  55 SW9       29.97F
HILLSDALE      MOCLDY    62  46  56 SW9       29.97F
$$

...OTHER LOCATIONS...

CITY           SKY/WX    TMP DP  RH WIND       PRES   REMARKS
SAINT LOUIS MO PTCLDY    71  55  56 SW9       30.06S
CAPE GIRARDEAU PTCLDY    59  57  93 S3        30.09S
MILWAUKEE WI   PTCLDY    72  58  61 SW18G29   29.85F
NASHVILLE TN   PTCLDY    65  59  81 S5        30.14S
$$





USA.gov is the U.S. government's official web portal to all federal, state and local government web resources and services.